Time,TemperatureF,DewpointF,PressureIn,WindDirection,WindDirectionDegrees,WindSpeedMPH,WindSpeedGustMPH,Humidity,HourlyPrecipIn,Conditions,Clouds,dailyrainin,SoftwareType,DateUTC
2013-02-14 00:07:00,34.9,33.8,29.80,North,360,0.0,0.0,96,0.00,,,0.00,VWS V14.01,2013-02-14 05:07:00,
2013-02-14 00:08:00,34.8,33.7,29.80,North,360,0.0,0.0,96,0.00,,,0.00,VWS V14.01,2013-02-14 05:08:00,
2013-02-14 00:13:00,34.7,33.9,29.80,North,360,0.0,0.0,97,0.00,,,0.00,VWS V14.01,2013-02-14 05:13:00,
2013-02-14 00:23:00,34.7,33.9,29.81,North,360,0.0,0.0,97,0.00,,,0.00,VWS V14.01,2013-02-14 05:23:00,
2013-02-14 00:28:00,34.7,33.6,29.81,North,360,0.0,0.0,96,0.00,,,0.00,VWS V14.01,2013-02-14 05:28:00,
2013-02-14 00:33:00,34.9,33.8,29.81,North,360,0.0,0.0,96,0.00,,,0.00,VWS V14.01,2013-02-14 05:33:00,
2013-02-14 00:38:00,34.9,33.8,29.81,North,360,0.0,0.0,96,0.00,,,0.00,VWS V14.01,2013-02-14 05:38:00,
2013-02-14 00:48:00,34.9,33.8,29.82,North,360,0.0,0.0,96,0.00,,,0.00,VWS V14.01,2013-02-14 05:48:00,
2013-02-14 00:53:00,34.9,33.8,29.82,North,360,0.0,0.0,96,0.00,,,0.00,VWS V14.01,2013-02-14 05:53:00,
2013-02-14 00:58:00,35.0,33.9,29.82,North,360,0.0,0.0,96,0.00,,,0.00,VWS V14.01,2013-02-14 05:58:00,
2013-02-14 01:07:00,34.9,33.8,29.82,North,360,0.0,0.0,96,0.00,,,0.00,VWS V14.01,2013-02-14 06:07:00,
2013-02-14 01:13:00,34.9,33.8,29.83,North,360,0.0,0.0,96,0.00,,,0.00,VWS V14.01,2013-02-14 06:13:00,
2013-02-14 01:23:00,34.9,34.1,29.84,North,360,0.0,0.0,97,0.00,,,0.00,VWS V14.01,2013-02-14 06:23:00,
2013-02-14 01:28:00,34.9,34.1,29.84,North,360,0.0,0.0,97,0.00,,,0.00,VWS V14.01,2013-02-14 06:28:00,
2013-02-14 01:33:00,34.9,34.1,29.84,North,360,0.0,0.0,97,0.00,,,0.00,VWS V14.01,2013-02-14 06:33:00,
2013-02-14 01:38:00,34.9,34.1,29.84,North,360,0.0,0.0,97,0.00,,,0.00,VWS V14.01,2013-02-14 06:38:00,
2013-02-14 01:43:00,34.9,34.1,29.84,North,360,0.0,0.0,97,0.00,,,0.00,VWS V14.01,2013-02-14 06:43:00,
2013-02-14 01:53:00,34.9,33.8,29.85,North,360,0.0,0.0,96,0.00,,,0.00,VWS V14.01,2013-02-14 06:53:00,
2013-02-14 01:58:00,34.9,33.8,29.85,North,360,0.0,0.0,96,0.00,,,0.00,VWS V14.01,2013-02-14 06:58:00,
2013-02-14 02:07:00,34.9,34.1,29.85,North,360,0.0,0.0,97,0.00,,,0.00,VWS V14.01,2013-02-14 07:07:00,
2013-02-14 02:13:00,34.8,34.0,29.86,North,360,0.0,0.0,97,0.00,,,0.00,VWS V14.01,2013-02-14 07:13:00,
2013-02-14 02:18:00,34.7,33.9,29.86,North,360,0.0,0.0,97,0.00,,,0.00,VWS V14.01,2013-02-14 07:18:00,
2013-02-14 02:23:00,34.7,33.9,29.86,North,360,0.0,0.0,97,0.00,,,0.00,VWS V14.01,2013-02-14 07:23:00,
2013-02-14 02:28:00,34.6,33.8,29.86,North,360,0.0,0.0,97,0.00,,,0.00,VWS V14.01,2013-02-14 07:28:00,
2013-02-14 02:33:00,34.7,33.9,29.86,North,360,0.0,0.0,97,0.00,,,0.00,VWS V14.01,2013-02-14 07:33:00,
2013-02-14 02:43:00,34.6,33.5,29.86,North,360,0.0,0.0,96,0.00,,,0.00,VWS V14.01,2013-02-14 07:43:00,
2013-02-14 02:48:00,34.4,33.6,29.86,North,360,0.0,0.0,97,0.00,,,0.00,VWS V14.01,2013-02-14 07:48:00,
2013-02-14 02:53:00,34.4,33.6,29.87,North,360,0.0,0.0,97,0.00,,,0.00,VWS V14.01,2013-02-14 07:53:00,
2013-02-14 02:58:00,34.5,33.7,29.87,North,360,0.0,0.0,97,0.00,,OVC050,0.00,VWS V14.01,2013-02-14 07:58:00,
2013-02-14 03:07:00,34.4,33.6,29.87,North,360,0.0,0.0,97,0.00,,OVC050,0.00,VWS V14.01,2013-02-14 08:07:00,
2013-02-14 03:13:00,34.2,33.4,29.87,North,360,0.0,0.0,97,0.00,,OVC050,0.00,VWS V14.01,2013-02-14 08:13:00,
2013-02-14 03:18:00,34.1,33.3,29.87,North,360,0.0,0.0,97,0.00,,OVC050,0.00,VWS V14.01,2013-02-14 08:18:00,
2013-02-14 03:23:00,34.2,33.4,29.87,North,360,0.0,0.0,97,0.00,,OVC050,0.00,VWS V14.01,2013-02-14 08:23:00,
2013-02-14 03:28:00,34.1,33.3,29.88,North,360,0.0,0.0,97,0.00,,OVC050,0.00,VWS V14.01,2013-02-14 08:28:00,
2013-02-14 03:38:00,34.1,33.3,29.88,North,360,0.0,0.0,97,0.00,,OVC050,0.00,VWS V14.01,2013-02-14 08:38:00,
2013-02-14 03:43:00,34.0,33.2,29.89,North,360,0.0,0.0,97,0.00,,OVC050,0.00,VWS V14.01,2013-02-14 08:43:00,
2013-02-14 03:48:00,34.0,33.2,29.89,North,360,0.0,0.0,97,0.00,,OVC050,0.00,VWS V14.01,2013-02-14 08:48:00,
2013-02-14 03:53:00,33.9,33.1,29.90,North,360,0.0,0.0,97,0.00,,OVC050,0.00,VWS V14.01,2013-02-14 08:53:00,
2013-02-14 03:58:00,34.0,33.2,29.90,North,360,0.0,0.0,97,0.00,,SCT050,0.00,VWS V14.01,2013-02-14 08:58:00,
2013-02-14 04:07:00,34.0,33.2,29.90,North,360,0.0,0.0,97,0.00,,SCT050,0.00,VWS V14.01,2013-02-14 09:07:00,
2013-02-14 04:13:00,34.1,33.3,29.91,North,360,0.0,0.0,97,0.00,,SCT050,0.00,VWS V14.01,2013-02-14 09:13:00,
2013-02-14 04:23:00,34.0,33.2,29.91,North,360,0.0,0.0,97,0.00,,SCT050,0.00,VWS V14.01,2013-02-14 09:23:00,
2013-02-14 04:28:00,33.9,33.1,29.91,North,360,0.0,0.0,97,0.00,,SCT050,0.00,VWS V14.01,2013-02-14 09:28:00,
2013-02-14 04:33:00,33.9,33.1,29.92,North,360,0.0,0.0,97,0.00,,SCT050,0.00,VWS V14.01,2013-02-14 09:33:00,
2013-02-14 04:38:00,33.7,32.9,29.92,North,360,0.0,0.0,97,0.00,,SCT050,0.00,VWS V14.01,2013-02-14 09:38:00,
2013-02-14 04:48:00,33.5,32.7,29.92,North,360,0.0,0.0,97,0.00,,SCT050,0.00,VWS V14.01,2013-02-14 09:48:00,
2013-02-14 04:53:00,33.5,32.7,29.92,North,360,0.0,0.0,97,0.00,,SCT050,0.00,VWS V14.01,2013-02-14 09:53:00,
2013-02-14 04:58:00,33.7,32.9,29.92,North,360,0.0,0.0,97,0.00,,SCT050,0.00,VWS V14.01,2013-02-14 09:58:00,
2013-02-14 05:07:00,33.8,33.0,29.92,North,360,0.0,0.0,97,0.00,,SCT050,0.00,VWS V14.01,2013-02-14 10:07:00,
2013-02-14 05:13:00,33.8,33.0,29.93,North,360,0.0,0.0,97,0.00,,SCT050,0.00,VWS V14.01,2013-02-14 10:13:00,
2013-02-14 05:23:00,33.8,33.0,29.93,North,360,0.0,0.0,97,0.00,,SCT050,0.00,VWS V14.01,2013-02-14 10:23:00,
2013-02-14 05:28:00,33.5,32.7,29.94,North,360,0.0,0.0,97,0.00,,SCT050,0.00,VWS V14.01,2013-02-14 10:28:00,
2013-02-14 05:33:00,33.6,32.8,29.94,North,360,0.0,0.0,97,0.00,,SCT050,0.00,VWS V14.01,2013-02-14 10:33:00,
2013-02-14 05:38:00,33.8,33.0,29.94,North,360,0.0,0.0,97,0.00,,SCT050,0.00,VWS V14.01,2013-02-14 10:38:00,
2013-02-14 05:43:00,33.9,32.8,29.94,North,360,0.0,0.0,96,0.00,,SCT050,0.00,VWS V14.01,2013-02-14 10:43:00,
2013-02-14 05:48:00,33.6,32.8,29.94,North,360,0.0,0.0,97,0.00,,SCT050,0.00,VWS V14.01,2013-02-14 10:48:00,
2013-02-14 05:58:00,33.7,32.6,29.95,North,360,0.0,0.0,96,0.00,,,0.00,VWS V14.01,2013-02-14 10:58:00,
2013-02-14 06:07:00,33.8,32.7,29.95,North,360,0.0,0.0,96,0.00,,,0.00,VWS V14.01,2013-02-14 11:07:00,
2013-02-14 06:13:00,33.7,32.3,29.95,North,360,0.0,0.0,95,0.00,,,0.00,VWS V14.01,2013-02-14 11:13:00,
2013-02-14 06:23:00,34.9,32.0,29.96,North,360,0.0,0.0,89,0.00,,,0.00,VWS V14.01,2013-02-14 11:23:00,
2013-02-14 06:33:00,35.1,31.6,29.96,North,360,0.0,0.0,87,0.00,,,0.00,VWS V14.01,2013-02-14 11:33:00,
2013-02-14 06:43:00,35.0,31.2,29.96,North,360,0.0,0.0,86,0.00,,,0.00,VWS V14.01,2013-02-14 11:43:00,
2013-02-14 06:48:00,34.9,31.4,29.97,North,360,0.0,0.0,87,0.00,,,0.00,VWS V14.01,2013-02-14 11:48:00,
2013-02-14 06:53:00,35.0,31.2,29.97,North,360,0.0,0.0,86,0.00,,,0.00,VWS V14.01,2013-02-14 11:53:00,
2013-02-14 06:58:00,34.9,31.4,29.97,North,360,0.0,0.0,87,0.00,,CLR,0.00,VWS V14.01,2013-02-14 11:58:00,
2013-02-14 07:07:00,34.8,31.3,29.97,North,360,0.0,0.0,87,0.00,,CLR,0.00,VWS V14.01,2013-02-14 12:07:00,
2013-02-14 07:13:00,34.7,31.2,29.98,North,360,0.0,0.0,87,0.00,,CLR,0.00,VWS V14.01,2013-02-14 12:13:00,
2013-02-14 07:18:00,34.6,30.8,29.98,North,360,0.0,0.0,86,0.00,,CLR,0.00,VWS V14.01,2013-02-14 12:18:00,
2013-02-14 07:28:00,34.6,31.1,29.99,North,360,0.0,0.0,87,0.00,,CLR,0.00,VWS V14.01,2013-02-14 12:28:00,
2013-02-14 07:33:00,34.4,31.2,29.99,North,360,0.0,0.0,88,0.00,,CLR,0.00,VWS V14.01,2013-02-14 12:33:00,
2013-02-14 07:38:00,34.4,31.2,29.99,North,360,0.0,0.0,88,0.00,,CLR,0.00,VWS V14.01,2013-02-14 12:38:00,
2013-02-14 07:43:00,34.6,31.1,29.99,North,360,0.0,0.0,87,0.00,,CLR,0.00,VWS V14.01,2013-02-14 12:43:00,
2013-02-14 07:53:00,34.5,31.4,30.00,North,360,0.0,0.0,88,0.00,,CLR,0.00,VWS V14.01,2013-02-14 12:53:00,
2013-02-14 07:58:00,34.5,31.4,30.00,North,360,0.0,0.0,88,0.00,,FEW100,0.00,VWS V14.01,2013-02-14 12:58:00,
2013-02-14 08:07:00,34.8,31.3,30.00,North,360,0.0,0.0,87,0.00,,FEW100,0.00,VWS V14.01,2013-02-14 13:07:00,
2013-02-14 08:13:00,36.2,31.8,30.01,North,360,0.0,0.0,84,0.00,,FEW100,0.00,VWS V14.01,2013-02-14 13:13:00,
2013-02-14 08:23:00,36.9,31.8,30.01,North,360,0.0,0.0,82,0.00,,FEW100,0.00,VWS V14.01,2013-02-14 13:23:00,
2013-02-14 08:28:00,37.4,31.6,30.02,North,360,0.0,0.0,79,0.00,,FEW100,0.00,VWS V14.01,2013-02-14 13:28:00,
2013-02-14 08:33:00,37.4,32.0,30.02,North,360,0.0,0.0,81,0.00,,FEW100,0.00,VWS V14.01,2013-02-14 13:33:00,
2013-02-14 08:38:00,37.5,31.1,30.02,North,360,0.0,0.0,77,0.00,,FEW100,0.00,VWS V14.01,2013-02-14 13:38:00,
2013-02-14 08:43:00,37.6,30.5,30.02,North,360,0.0,0.0,75,0.00,,FEW100,0.00,VWS V14.01,2013-02-14 13:43:00,
2013-02-14 08:53:00,38.2,31.0,30.02,North,360,0.0,0.0,75,0.00,,FEW100,0.00,VWS V14.01,2013-02-14 13:53:00,
2013-02-14 08:58:00,38.7,31.5,30.03,North,360,0.0,0.0,75,0.00,,FEW110,0.00,VWS V14.01,2013-02-14 13:58:00,
2013-02-14 09:07:00,38.4,30.9,30.03,North,360,0.0,0.0,74,0.00,,FEW110,0.00,VWS V14.01,2013-02-14 14:07:00,
2013-02-14 09:13:00,38.3,30.4,30.03,North,360,0.0,0.0,73,0.00,,FEW110,0.00,VWS V14.01,2013-02-14 14:13:00,
2013-02-14 09:23:00,38.7,30.4,30.03,North,360,0.0,0.0,72,0.00,,FEW110,0.00,VWS V14.01,2013-02-14 14:23:00,
2013-02-14 09:28:00,38.9,29.9,30.03,North,360,0.0,0.0,70,0.00,,FEW110,0.00,VWS V14.01,2013-02-14 14:28:00,
2013-02-14 09:33:00,39.0,29.6,30.03,North,360,0.0,0.0,69,0.00,,FEW110,0.00,VWS V14.01,2013-02-14 14:33:00,
2013-02-14 09:38:00,39.5,29.7,30.03,North,360,0.0,0.0,68,0.00,,FEW110,0.00,VWS V14.01,2013-02-14 14:38:00,
2013-02-14 09:43:00,40.0,29.8,30.03,North,360,0.0,0.0,67,0.00,,FEW110,0.00,VWS V14.01,2013-02-14 14:43:00,
2013-02-14 09:48:00,40.3,29.6,30.03,North,360,0.0,0.0,65,0.00,,FEW110,0.00,VWS V14.01,2013-02-14 14:48:00,
2013-02-14 09:53:00,39.9,28.0,30.04,North,360,0.0,0.0,62,0.00,,FEW110,0.00,VWS V14.01,2013-02-14 14:53:00,
2013-02-14 10:07:00,40.1,28.6,30.03,North,360,0.0,0.0,63,0.00,,FEW230,0.00,VWS V14.01,2013-02-14 15:07:00,
2013-02-14 10:13:00,40.7,28.4,30.04,North,360,0.0,0.0,61,0.00,,FEW230,0.00,VWS V14.01,2013-02-14 15:13:00,
2013-02-14 10:18:00,40.9,28.5,30.04,North,360,0.0,0.0,61,0.00,,FEW230,0.00,VWS V14.01,2013-02-14 15:18:00,
2013-02-14 10:28:00,41.1,28.3,30.04,North,360,0.0,0.0,60,0.00,,FEW230,0.00,VWS V14.01,2013-02-14 15:28:00,
2013-02-14 10:33:00,41.4,28.1,30.04,North,360,0.0,0.0,59,0.00,,FEW230,0.00,VWS V14.01,2013-02-14 15:33:00,
2013-02-14 10:38:00,41.4,28.1,30.04,North,360,0.0,0.0,59,0.00,,FEW230,0.00,VWS V14.01,2013-02-14 15:38:00,
2013-02-14 10:43:00,41.4,28.6,30.04,North,360,0.0,0.0,60,0.00,,FEW230,0.00,VWS V14.01,2013-02-14 15:43:00,
2013-02-14 10:53:00,42.3,29.0,30.04,North,360,0.0,0.0,59,0.00,,FEW230,0.00,VWS V14.01,2013-02-14 15:53:00,
2013-02-14 10:58:00,42.1,28.4,30.04,North,360,0.0,0.0,58,0.00,,CLR,0.00,VWS V14.01,2013-02-14 15:58:00,
2013-02-14 11:07:00,42.5,29.6,30.04,North,360,0.0,0.0,60,0.00,,CLR,0.00,VWS V14.01,2013-02-14 16:07:00,
2013-02-14 11:13:00,42.2,27.0,30.04,North,360,0.0,0.0,55,0.00,,CLR,0.00,VWS V14.01,2013-02-14 16:13:00,
2013-02-14 11:18:00,42.6,27.4,30.04,North,360,0.0,0.0,55,0.00,,CLR,0.00,VWS V14.01,2013-02-14 16:18:00,
2013-02-14 11:23:00,42.8,28.1,30.03,North,360,0.0,0.0,56,0.00,,CLR,0.00,VWS V14.01,2013-02-14 16:23:00,
2013-02-14 11:33:00,42.8,26.6,30.03,North,360,0.0,0.0,52,0.00,,CLR,0.00,VWS V14.01,2013-02-14 16:33:00,
2013-02-14 11:38:00,43.2,27.5,30.03,North,360,0.0,0.0,54,0.00,,CLR,0.00,VWS V14.01,2013-02-14 16:38:00,
2013-02-14 11:43:00,43.5,27.3,30.03,North,360,0.0,0.0,52,0.00,,CLR,0.00,VWS V14.01,2013-02-14 16:43:00,
2013-02-14 11:48:00,44.4,28.6,30.03,North,360,0.0,0.0,54,0.00,,CLR,0.00,VWS V14.01,2013-02-14 16:48:00,
2013-02-14 11:53:00,43.7,28.0,30.03,North,360,0.0,0.0,54,0.00,,CLR,0.00,VWS V14.01,2013-02-14 16:53:00,
2013-02-14 11:58:00,44.0,26.7,30.04,North,360,0.0,0.0,50,0.00,,CLR,0.00,VWS V14.01,2013-02-14 16:58:00,
2013-02-14 12:07:00,44.5,26.1,30.03,North,360,0.0,0.0,48,0.00,,CLR,0.00,VWS V14.01,2013-02-14 17:07:00,
2013-02-14 12:13:00,44.7,27.9,30.03,North,360,0.0,0.0,51,0.00,,CLR,0.00,VWS V14.01,2013-02-14 17:13:00,
2013-02-14 12:18:00,44.2,25.9,30.03,North,360,0.0,0.0,48,0.00,,CLR,0.00,VWS V14.01,2013-02-14 17:18:00,
2013-02-14 12:23:00,44.3,25.9,30.03,North,360,0.0,0.0,48,0.00,,CLR,0.00,VWS V14.01,2013-02-14 17:23:00,
2013-02-14 12:28:00,44.4,28.1,30.03,North,360,0.0,0.0,52,0.00,,CLR,0.00,VWS V14.01,2013-02-14 17:28:00,
2013-02-14 12:33:00,44.6,25.7,30.02,North,360,0.0,0.0,47,0.00,,CLR,0.00,VWS V14.01,2013-02-14 17:33:00,
2013-02-14 12:38:00,45.1,26.1,30.02,North,360,0.0,0.0,47,0.00,,CLR,0.00,VWS V14.01,2013-02-14 17:38:00,
2013-02-14 12:48:00,45.5,25.9,30.01,North,360,0.0,0.0,46,0.00,,CLR,0.00,VWS V14.01,2013-02-14 17:48:00,
2013-02-14 12:53:00,45.4,24.1,30.01,North,360,0.0,0.0,43,0.00,,CLR,0.00,VWS V14.01,2013-02-14 17:53:00,
2013-02-14 12:58:00,46.1,26.5,30.01,North,360,0.0,0.0,46,0.00,,CLR,0.00,VWS V14.01,2013-02-14 17:58:00,
2013-02-14 13:07:00,47.5,28.3,30.01,North,360,0.0,0.0,47,0.00,,CLR,0.00,VWS V14.01,2013-02-14 18:07:00,
2013-02-14 13:13:00,47.2,26.9,30.01,North,360,0.0,0.0,45,0.00,,CLR,0.00,VWS V14.01,2013-02-14 18:13:00,
2013-02-14 13:18:00,47.4,27.7,30.01,North,360,0.0,0.0,46,0.00,,CLR,0.00,VWS V14.01,2013-02-14 18:18:00,
2013-02-14 13:23:00,46.7,25.3,30.01,North,360,0.0,0.0,43,0.00,,CLR,0.00,VWS V14.01,2013-02-14 18:23:00,
2013-02-14 13:28:00,46.9,26.1,30.01,North,360,0.0,0.0,44,0.00,,CLR,0.00,VWS V14.01,2013-02-14 18:28:00,
2013-02-14 13:38:00,47.0,28.4,30.00,North,360,0.0,0.0,48,0.00,,CLR,0.00,VWS V14.01,2013-02-14 18:38:00,
2013-02-14 13:43:00,47.2,28.6,30.00,North,360,0.0,0.0,48,0.00,,CLR,0.00,VWS V14.01,2013-02-14 18:43:00,
2013-02-14 13:48:00,47.2,30.2,30.00,North,360,0.0,0.0,51,0.00,,CLR,0.00,VWS V14.01,2013-02-14 18:48:00,
2013-02-14 13:53:00,47.7,25.6,30.00,North,360,0.0,0.0,42,0.00,,CLR,0.00,VWS V14.01,2013-02-14 18:53:00,
2013-02-14 13:58:00,47.4,28.8,30.00,North,360,0.0,0.0,48,0.00,,CLR,0.00,VWS V14.01,2013-02-14 18:58:00,
2013-02-14 14:07:00,47.3,28.7,30.00,North,360,0.0,0.0,48,0.00,,CLR,0.00,VWS V14.01,2013-02-14 19:07:00,
2013-02-14 14:13:00,47.1,28.5,30.00,North,360,0.0,0.0,48,0.00,,CLR,0.00,VWS V14.01,2013-02-14 19:13:00,
2013-02-14 14:23:00,47.2,29.1,29.99,North,360,0.0,0.0,49,0.00,,CLR,0.00,VWS V14.01,2013-02-14 19:23:00,
2013-02-14 14:28:00,47.2,29.7,29.99,North,360,0.0,0.0,50,0.00,,CLR,0.00,VWS V14.01,2013-02-14 19:28:00,
2013-02-14 14:33:00,47.6,29.5,29.99,North,360,0.0,0.0,49,0.00,,CLR,0.00,VWS V14.01,2013-02-14 19:33:00,
2013-02-14 14:38:00,47.5,26.6,29.99,North,360,0.0,0.0,44,0.00,,CLR,0.00,VWS V14.01,2013-02-14 19:38:00,
2013-02-14 14:43:00,47.9,28.7,29.99,North,360,0.0,0.0,47,0.00,,CLR,0.00,VWS V14.01,2013-02-14 19:43:00,
2013-02-14 14:53:00,47.9,27.6,30.00,North,360,0.0,0.0,45,0.00,,CLR,0.00,VWS V14.01,2013-02-14 19:53:00,
2013-02-14 14:58:00,47.8,27.5,30.00,North,360,0.0,0.0,45,0.00,,FEW050,0.00,VWS V14.01,2013-02-14 19:58:00,
2013-02-14 15:07:00,48.1,28.9,30.00,North,360,0.0,0.0,47,0.00,,FEW050,0.00,VWS V14.01,2013-02-14 20:07:00,
2013-02-14 15:13:00,47.3,29.2,30.00,North,360,0.0,0.0,49,0.00,,FEW050,0.00,VWS V14.01,2013-02-14 20:13:00,
2013-02-14 15:18:00,47.2,27.5,30.00,North,360,0.0,0.0,46,0.00,,FEW050,0.00,VWS V14.01,2013-02-14 20:18:00,
2013-02-14 15:23:00,47.4,25.9,30.00,North,360,0.0,0.0,43,0.00,,FEW050,0.00,VWS V14.01,2013-02-14 20:23:00,
2013-02-14 15:28:00,47.7,26.8,30.00,North,360,0.0,0.0,44,0.00,,FEW050,0.00,VWS V14.01,2013-02-14 20:28:00,
2013-02-14 15:33:00,47.9,27.6,30.00,North,360,0.0,0.0,45,0.00,,FEW050,0.00,VWS V14.01,2013-02-14 20:33:00,
2013-02-14 15:38:00,48.1,25.9,30.00,North,360,0.0,0.0,42,0.00,,FEW050,0.00,VWS V14.01,2013-02-14 20:38:00,
2013-02-14 15:43:00,47.7,26.8,30.00,North,360,0.0,0.0,44,0.00,,FEW050,0.00,VWS V14.01,2013-02-14 20:43:00,
2013-02-14 15:48:00,47.6,26.1,30.00,North,360,0.0,0.0,43,0.00,,FEW050,0.00,VWS V14.01,2013-02-14 20:48:00,
2013-02-14 15:53:00,47.8,26.3,30.00,North,360,0.0,0.0,43,0.00,,FEW050,0.00,VWS V14.01,2013-02-14 20:53:00,
2013-02-14 16:07:00,47.9,26.4,29.99,North,360,0.0,0.0,43,0.00,,FEW050,0.00,VWS V14.01,2013-02-14 21:07:00,
2013-02-14 16:13:00,47.6,26.1,29.98,North,360,0.0,0.0,43,0.00,,FEW050,0.00,VWS V14.01,2013-02-14 21:13:00,
2013-02-14 16:18:00,47.4,27.1,29.98,North,360,0.0,0.0,45,0.00,,FEW050,0.00,VWS V14.01,2013-02-14 21:18:00,
2013-02-14 16:23:00,47.3,28.7,29.98,North,360,0.0,0.0,48,0.00,,FEW050,0.00,VWS V14.01,2013-02-14 21:23:00,
2013-02-14 16:28:00,47.3,28.1,29.98,North,360,0.0,0.0,47,0.00,,FEW050,0.00,VWS V14.01,2013-02-14 21:28:00,
2013-02-14 16:33:00,47.2,27.5,29.98,North,360,0.0,0.0,46,0.00,,FEW050,0.00,VWS V14.01,2013-02-14 21:33:00,
2013-02-14 16:38:00,47.0,29.0,29.98,North,360,0.0,0.0,49,0.00,,FEW050,0.00,VWS V14.01,2013-02-14 21:38:00,
2013-02-14 16:43:00,47.5,26.6,29.99,North,360,0.0,0.0,44,0.00,,FEW050,0.00,VWS V14.01,2013-02-14 21:43:00,
2013-02-14 16:48:00,47.9,26.4,29.99,North,360,0.0,0.0,43,0.00,,FEW050,0.00,VWS V14.01,2013-02-14 21:48:00,
2013-02-14 16:53:00,47.8,26.9,29.99,North,360,0.0,0.0,44,0.00,,FEW050,0.00,VWS V14.01,2013-02-14 21:53:00,
2013-02-14 16:58:00,47.6,26.7,30.00,North,360,0.0,0.0,44,0.00,,FEW055,0.00,VWS V14.01,2013-02-14 21:58:00,
2013-02-14 17:07:00,47.6,26.1,30.00,North,360,0.0,0.0,43,0.00,,FEW055,0.00,VWS V14.01,2013-02-14 22:07:00,
2013-02-14 17:13:00,47.6,25.5,30.01,North,360,0.0,0.0,42,0.00,,FEW055,0.00,VWS V14.01,2013-02-14 22:13:00,
2013-02-14 17:18:00,47.5,25.4,30.00,North,360,0.0,0.0,42,0.00,,FEW055,0.00,VWS V14.01,2013-02-14 22:18:00,
2013-02-14 17:23:00,47.4,25.3,30.00,North,360,0.0,0.0,42,0.00,,FEW055,0.00,VWS V14.01,2013-02-14 22:23:00,
2013-02-14 17:28:00,47.3,25.8,30.00,North,360,0.0,0.0,43,0.00,,FEW055,0.00,VWS V14.01,2013-02-14 22:28:00,
2013-02-14 17:38:00,46.9,27.2,30.00,North,360,0.0,0.0,46,0.00,,FEW055,0.00,VWS V14.01,2013-02-14 22:38:00,
2013-02-14 17:43:00,46.9,27.2,30.00,North,360,0.0,0.0,46,0.00,,FEW055,0.00,VWS V14.01,2013-02-14 22:43:00,
2013-02-14 17:48:00,46.9,26.6,30.00,North,360,0.0,0.0,45,0.00,,FEW055,0.00,VWS V14.01,2013-02-14 22:48:00,
2013-02-14 17:53:00,46.4,27.3,30.00,North,360,0.0,0.0,47,0.00,,FEW055,0.00,VWS V14.01,2013-02-14 22:53:00,
2013-02-14 17:58:00,46.1,26.5,30.01,North,360,0.0,0.0,46,0.00,,FEW230,0.00,VWS V14.01,2013-02-14 22:58:00,
2013-02-14 18:07:00,46.3,26.7,30.01,North,360,0.0,0.0,46,0.00,,FEW230,0.00,VWS V14.01,2013-02-14 23:07:00,
2013-02-14 18:13:00,46.0,26.4,30.01,North,360,0.0,0.0,46,0.00,,FEW230,0.00,VWS V14.01,2013-02-14 23:13:00,
2013-02-14 18:18:00,45.9,27.4,30.01,North,360,0.0,0.0,48,0.00,,FEW230,0.00,VWS V14.01,2013-02-14 23:18:00,
2013-02-14 18:23:00,45.5,27.6,30.01,North,360,0.0,0.0,49,0.00,,FEW230,0.00,VWS V14.01,2013-02-14 23:23:00,
2013-02-14 18:33:00,45.5,27.0,30.01,North,360,0.0,0.0,48,0.00,,FEW230,0.00,VWS V14.01,2013-02-14 23:33:00,
2013-02-14 18:38:00,45.5,27.0,30.01,North,360,0.0,0.0,48,0.00,,FEW230,0.00,VWS V14.01,2013-02-14 23:38:00,
2013-02-14 18:43:00,45.5,27.0,30.01,North,360,0.0,0.0,48,0.00,,FEW230,0.00,VWS V14.01,2013-02-14 23:43:00,
2013-02-14 18:48:00,45.3,27.4,30.01,North,360,0.0,0.0,49,0.00,,FEW230,0.00,VWS V14.01,2013-02-14 23:48:00,
2013-02-14 18:53:00,45.2,26.8,30.01,North,360,0.0,0.0,48,0.00,,FEW230,0.00,VWS V14.01,2013-02-14 23:53:00,
2013-02-14 19:07:00,44.9,28.1,30.01,North,360,0.0,0.0,51,0.00,,FEW230,0.00,VWS V14.01,2013-02-15 00:07:00,
2013-02-14 19:13:00,44.8,28.0,30.01,North,360,0.0,0.0,51,0.00,,FEW230,0.00,VWS V14.01,2013-02-15 00:13:00,
2013-02-14 19:18:00,44.4,28.1,30.01,North,360,0.0,0.0,52,0.00,,FEW230,0.00,VWS V14.01,2013-02-15 00:18:00,
2013-02-14 19:23:00,44.2,27.9,30.01,North,360,0.0,0.0,52,0.00,,FEW230,0.00,VWS V14.01,2013-02-15 00:23:00,
2013-02-14 19:28:00,44.2,27.9,30.02,North,360,0.0,0.0,52,0.00,,FEW230,0.00,VWS V14.01,2013-02-15 00:28:00,
2013-02-14 19:33:00,44.1,28.3,30.01,North,360,0.0,0.0,54,0.00,,FEW230,0.00,VWS V14.01,2013-02-15 00:33:00,
2013-02-14 19:38:00,43.7,28.5,30.02,North,360,0.0,0.0,55,0.00,,FEW230,0.00,VWS V14.01,2013-02-15 00:38:00,
2013-02-14 19:43:00,43.4,28.6,30.02,North,360,0.0,0.0,56,0.00,,FEW230,0.00,VWS V14.01,2013-02-15 00:43:00,
2013-02-14 19:48:00,43.7,28.9,30.02,North,360,0.0,0.0,56,0.00,,FEW230,0.00,VWS V14.01,2013-02-15 00:48:00,
2013-02-14 19:58:00,43.5,28.3,30.02,North,360,0.0,0.0,55,0.00,,FEW230,0.00,VWS V14.01,2013-02-15 00:58:00,
2013-02-14 20:07:00,43.3,28.5,30.02,North,360,0.0,0.0,56,0.00,,FEW230,0.00,VWS V14.01,2013-02-15 01:07:00,
2013-02-14 20:13:00,42.8,27.6,30.02,North,360,0.0,0.0,55,0.00,,FEW230,0.00,VWS V14.01,2013-02-15 01:13:00,
2013-02-14 20:18:00,42.8,28.1,30.03,North,360,0.0,0.0,56,0.00,,FEW230,0.00,VWS V14.01,2013-02-15 01:18:00,
2013-02-14 20:23:00,42.7,27.5,30.03,North,360,0.0,0.0,55,0.00,,FEW230,0.00,VWS V14.01,2013-02-15 01:23:00,
2013-02-14 20:28:00,42.5,27.8,30.03,North,360,0.0,0.0,56,0.00,,FEW230,0.00,VWS V14.01,2013-02-15 01:28:00,
2013-02-14 20:33:00,42.5,28.3,30.03,North,360,0.0,0.0,57,0.00,,FEW230,0.00,VWS V14.01,2013-02-15 01:33:00,
2013-02-14 20:38:00,42.3,27.6,30.03,North,360,0.0,0.0,56,0.00,,FEW230,0.00,VWS V14.01,2013-02-15 01:38:00,
2013-02-14 20:43:00,42.2,28.0,30.03,North,360,0.0,0.0,57,0.00,,FEW230,0.00,VWS V14.01,2013-02-15 01:43:00,
2013-02-14 20:48:00,42.3,27.6,30.03,North,360,0.0,0.0,56,0.00,,FEW230,0.00,VWS V14.01,2013-02-15 01:48:00,
2013-02-14 20:53:00,42.3,27.6,30.03,North,360,0.0,0.0,56,0.00,,FEW230,0.00,VWS V14.01,2013-02-15 01:53:00,
2013-02-14 20:58:00,42.6,26.9,30.03,North,360,0.0,0.0,54,0.00,,CLR,0.00,VWS V14.01,2013-02-15 01:58:00,
2013-02-14 21:07:00,42.2,28.0,30.03,North,360,0.0,0.0,57,0.00,,CLR,0.00,VWS V14.01,2013-02-15 02:07:00,
2013-02-14 21:13:00,42.0,29.6,30.02,North,360,0.0,0.0,61,0.00,,CLR,0.00,VWS V14.01,2013-02-15 02:13:00,
2013-02-14 21:18:00,41.9,29.1,30.03,North,360,0.0,0.0,60,0.00,,CLR,0.00,VWS V14.01,2013-02-15 02:18:00,
2013-02-14 21:23:00,41.7,28.4,30.03,North,360,0.0,0.0,59,0.00,,CLR,0.00,VWS V14.01,2013-02-15 02:23:00,
2013-02-14 21:28:00,41.4,28.1,30.02,North,360,0.0,0.0,59,0.00,,CLR,0.00,VWS V14.01,2013-02-15 02:28:00,
2013-02-14 21:38:00,40.9,28.1,30.03,North,360,0.0,0.0,60,0.00,,CLR,0.00,VWS V14.01,2013-02-15 02:38:00,
2013-02-14 21:43:00,40.8,28.0,30.03,North,360,0.0,0.0,60,0.00,,CLR,0.00,VWS V14.01,2013-02-15 02:43:00,
2013-02-14 21:48:00,40.7,28.8,30.03,North,360,0.0,0.0,62,0.00,,CLR,0.00,VWS V14.01,2013-02-15 02:48:00,
2013-02-14 21:53:00,40.4,28.9,30.03,North,360,0.0,0.0,63,0.00,,CLR,0.00,VWS V14.01,2013-02-15 02:53:00,
2013-02-14 21:58:00,40.2,29.1,30.03,North,360,0.0,0.0,64,0.00,,CLR,0.00,VWS V14.01,2013-02-15 02:58:00,
2013-02-14 22:07:00,40.3,29.6,30.03,North,360,0.0,0.0,65,0.00,,CLR,0.00,VWS V14.01,2013-02-15 03:07:00,
2013-02-14 22:13:00,40.2,30.4,30.03,North,360,0.0,0.0,68,0.00,,CLR,0.00,VWS V14.01,2013-02-15 03:13:00,
2013-02-14 22:18:00,40.3,30.8,30.03,North,360,0.0,0.0,69,0.00,,CLR,0.00,VWS V14.01,2013-02-15 03:18:00,
2013-02-14 22:23:00,40.1,31.0,30.03,North,360,0.0,0.0,70,0.00,,CLR,0.00,VWS V14.01,2013-02-15 03:23:00,
2013-02-14 22:28:00,40.0,31.3,30.03,North,360,0.0,0.0,71,0.00,,CLR,0.00,VWS V14.01,2013-02-15 03:28:00,
2013-02-14 22:33:00,39.8,31.5,30.03,North,360,0.0,0.0,72,0.00,,CLR,0.00,VWS V14.01,2013-02-15 03:33:00,
2013-02-14 22:38:00,39.6,31.3,30.03,North,360,0.0,0.0,72,0.00,,CLR,0.00,VWS V14.01,2013-02-15 03:38:00,
2013-02-14 22:43:00,39.6,31.7,30.03,North,360,0.0,0.0,73,0.00,,CLR,0.00,VWS V14.01,2013-02-15 03:43:00,
2013-02-14 22:48:00,39.7,32.1,30.03,North,360,0.0,0.0,74,0.00,,CLR,0.00,VWS V14.01,2013-02-15 03:48:00,
2013-02-14 22:53:00,39.7,32.1,30.03,North,360,0.0,0.0,74,0.00,,CLR,0.00,VWS V14.01,2013-02-15 03:53:00,
2013-02-14 22:58:00,39.6,32.4,30.03,North,360,0.0,0.0,75,0.00,,CLR,0.00,VWS V14.01,2013-02-15 03:58:00,
2013-02-14 23:07:00,39.4,32.2,30.03,North,360,0.0,0.0,75,0.00,,CLR,0.00,VWS V14.01,2013-02-15 04:07:00,
2013-02-14 23:13:00,39.2,32.4,30.04,North,360,0.0,0.0,76,0.00,,CLR,0.00,VWS V14.01,2013-02-15 04:13:00,
2013-02-14 23:23:00,39.2,32.4,30.04,North,360,0.0,0.0,76,0.00,,CLR,0.00,VWS V14.01,2013-02-15 04:23:00,
2013-02-14 23:28:00,38.9,32.4,30.04,North,360,0.0,0.0,77,0.00,,CLR,0.00,VWS V14.01,2013-02-15 04:28:00,
2013-02-14 23:33:00,38.9,32.8,30.04,North,360,0.0,0.0,78,0.00,,CLR,0.00,VWS V14.01,2013-02-15 04:33:00,
2013-02-14 23:38:00,38.9,32.8,30.04,North,360,0.0,0.0,78,0.00,,CLR,0.00,VWS V14.01,2013-02-15 04:38:00,
2013-02-14 23:43:00,38.9,32.8,30.04,North,360,0.0,0.0,78,0.00,,CLR,0.00,VWS V14.01,2013-02-15 04:43:00,
2013-02-14 23:48:00,38.8,33.0,30.04,North,360,0.0,0.0,79,0.00,,CLR,0.00,VWS V14.01,2013-02-15 04:48:00,
2013-02-14 23:53:00,38.9,33.4,30.04,North,360,0.0,0.0,81,0.00,,CLR,0.00,VWS V14.01,2013-02-15 04:53:00,
2013-02-14 23:58:00,39.0,33.9,30.04,North,360,0.0,0.0,82,0.00,,CLR,0.00,VWS V14.01,2013-02-15 04:58:00,